Screenshot 2020-03-10 at 16.31.56

Aviation Academy

Online Aviation Academy is a modern learning system, bundled with key enterprise functionality ranging from skill-gap analysis and branch management to tailor-made reports. Our unique TCExam is a system for electronic exams (also know as CBA – Computer-Based Assessment, CBT – Computer-Based Testing or e-exam) that enables educators and trainers to  deliver, and report on quizzes, tests and exams.

Koos Myburgh’s book has become a popular training tool for many helicopter pilots starting out on their aviation path. The book is detailed and informative.

About the author

He joined the South African Air Force as a pupil pilot in 1979. Completed training on Harvards and the Alouette III; received his Wings in 1981.
During his 18 year Air Force career he also flew the Puma, Oryx (Super Puma) and the Dauphin. He gave instruction on all the types. He qualified as a NVIS instructor, as well.
After his resignation, he was employed as CFI at Helicopters Unlimited and later as Director Training at the Starlite Aviation Group.
Since his qualification as Instructor during 1988, he gathered 8000 hours of instruction and a total of 12600 hours.
He holds ratings on 32 types/variants of aircraft and was appointed as a SACAA Designated Flight Examiner in 2012.

ONLINE LEARNING

Don’t just read about it, Learn about it…

Let us help you reach the sky.

Durban FALE METAR & TAF

FALE 280700Z 18003KT 8000 -RA BKN025 OVC030 14/12 Q1023 NOSIG

TAF FALE 280400Z 2806/2912 28004KT 9999 SCT015 BKN030 TX18/2812Z TN15/2904Z PROB30 TEMPO 2807/2810 5000 RA BKN015 OVC030 BECMG 2810/2812 11013KT TEMPO 2814/2820 4000 RA BKN010 OVC015 BECMG 2817/2819 21005KT TEMPO 2821/2908 3000 RA BKN010 OVC015

George FAGG METAR & TAF

FAGG 280700Z 25005KT 220V290 CAVOK 14/05 Q1023

TAF TAF FAGG 280400Z 2806/2906 33008KT CAVOK TX20/2812Z TN06/2905Z BECMG 2808/2810 22010KT FM281500 22015KT 9999 FEW020 BKN030 BECMG 2819/2821 30010KT

error: NO! Content is protected !!
Scroll to Top